Index of /20260425/WXO-DD/model_rdps/10km/12/078
Name Last modified Size Description
Parent Directory -
20260425T12Z_MSC_RDPS_AbsoluteVorticity_IsbL-0250_RLatLon0.09_PT078H.grib2 2026-04-25 15:03 623K
20260425T12Z_MSC_RDPS_AbsoluteVorticity_IsbL-0500_RLatLon0.09_PT078H.grib2 2026-04-25 15:03 571K
20260425T12Z_MSC_RDPS_AbsoluteVorticity_IsbL-0700_RLatLon0.09_PT078H.grib2 2026-04-25 15:03 623K
20260425T12Z_MSC_RDPS_AbsoluteVorticity_IsbL-0850_RLatLon0.09_PT078H.grib2 2026-04-25 15:03 780K
20260425T12Z_MSC_RDPS_AirTemp_AGL-120m_RLatLon0.09_PT078H.grib2 2026-04-25 15:03 398K
20260425T12Z_MSC_RDPS_AirTemp_AGL-2m_RLatLon0.09_PT078H.grib2 2026-04-25 15:03 635K
20260425T12Z_MSC_RDPS_AirTemp_AGL-40m_RLatLon0.09_PT078H.grib2 2026-04-25 15:03 406K
20260425T12Z_MSC_RDPS_AirTemp_AGL-80m_RLatLon0.09_PT078H.grib2 2026-04-25 15:03 402K
20260425T12Z_MSC_RDPS_AirTemp_IsbL-0001_RLatLon0.09_PT078H.grib2 2026-04-25 15:03 290K
20260425T12Z_MSC_RDPS_AirTemp_IsbL-0005_RLatLon0.09_PT078H.grib2 2026-04-25 15:03 299K
20260425T12Z_MSC_RDPS_AirTemp_IsbL-0010_RLatLon0.09_PT078H.grib2 2026-04-25 15:03 310K
20260425T12Z_MSC_RDPS_AirTemp_IsbL-0020_RLatLon0.09_PT078H.grib2 2026-04-25 15:03 326K
20260425T12Z_MSC_RDPS_AirTemp_IsbL-0030_RLatLon0.09_PT078H.grib2 2026-04-25 15:03 346K
20260425T12Z_MSC_RDPS_AirTemp_IsbL-0050_RLatLon0.09_PT078H.grib2 2026-04-25 15:03 321K
20260425T12Z_MSC_RDPS_AirTemp_IsbL-0100_RLatLon0.09_PT078H.grib2 2026-04-25 15:03 432K
20260425T12Z_MSC_RDPS_AirTemp_IsbL-0150_RLatLon0.09_PT078H.grib2 2026-04-25 15:03 433K
20260425T12Z_MSC_RDPS_AirTemp_IsbL-0175_RLatLon0.09_PT078H.grib2 2026-04-25 15:03 424K
20260425T12Z_MSC_RDPS_AirTemp_IsbL-0200_RLatLon0.09_PT078H.grib2 2026-04-25 15:03 423K
20260425T12Z_MSC_RDPS_AirTemp_IsbL-0225_RLatLon0.09_PT078H.grib2 2026-04-25 15:03 424K
20260425T12Z_MSC_RDPS_AirTemp_IsbL-0250_RLatLon0.09_PT078H.grib2 2026-04-25 15:03 432K
20260425T12Z_MSC_RDPS_AirTemp_IsbL-0275_RLatLon0.09_PT078H.grib2 2026-04-25 15:03 412K
20260425T12Z_MSC_RDPS_AirTemp_IsbL-0300_RLatLon0.09_PT078H.grib2 2026-04-25 15:03 417K
20260425T12Z_MSC_RDPS_AirTemp_IsbL-0350_RLatLon0.09_PT078H.grib2 2026-04-25 15:03 429K
20260425T12Z_MSC_RDPS_AirTemp_IsbL-0400_RLatLon0.09_PT078H.grib2 2026-04-25 15:03 428K
20260425T12Z_MSC_RDPS_AirTemp_IsbL-0450_RLatLon0.09_PT078H.grib2 2026-04-25 15:03 434K
20260425T12Z_MSC_RDPS_AirTemp_IsbL-0500_RLatLon0.09_PT078H.grib2 2026-04-25 15:03 409K
20260425T12Z_MSC_RDPS_AirTemp_IsbL-0550_RLatLon0.09_PT078H.grib2 2026-04-25 15:03 427K
20260425T12Z_MSC_RDPS_AirTemp_IsbL-0600_RLatLon0.09_PT078H.grib2 2026-04-25 15:03 442K
20260425T12Z_MSC_RDPS_AirTemp_IsbL-0650_RLatLon0.09_PT078H.grib2 2026-04-25 15:03 458K
20260425T12Z_MSC_RDPS_AirTemp_IsbL-0700_RLatLon0.09_PT078H.grib2 2026-04-25 15:03 485K
20260425T12Z_MSC_RDPS_AirTemp_IsbL-0750_RLatLon0.09_PT078H.grib2 2026-04-25 15:03 415K
20260425T12Z_MSC_RDPS_AirTemp_IsbL-0800_RLatLon0.09_PT078H.grib2 2026-04-25 15:03 462K
20260425T12Z_MSC_RDPS_AirTemp_IsbL-0850_RLatLon0.09_PT078H.grib2 2026-04-25 15:03 513K
20260425T12Z_MSC_RDPS_AirTemp_IsbL-0875_RLatLon0.09_PT078H.grib2 2026-04-25 15:03 529K
20260425T12Z_MSC_RDPS_AirTemp_IsbL-0900_RLatLon0.09_PT078H.grib2 2026-04-25 15:03 535K
20260425T12Z_MSC_RDPS_AirTemp_IsbL-0925_RLatLon0.09_PT078H.grib2 2026-04-25 15:03 533K
20260425T12Z_MSC_RDPS_AirTemp_IsbL-0950_RLatLon0.09_PT078H.grib2 2026-04-25 15:03 544K
20260425T12Z_MSC_RDPS_AirTemp_IsbL-0970_RLatLon0.09_PT078H.grib2 2026-04-25 15:03 540K
20260425T12Z_MSC_RDPS_AirTemp_IsbL-0985_RLatLon0.09_PT078H.grib2 2026-04-25 15:03 529K
20260425T12Z_MSC_RDPS_AirTemp_IsbL-1000_RLatLon0.09_PT078H.grib2 2026-04-25 15:03 516K
20260425T12Z_MSC_RDPS_AirTemp_IsbL-1015_RLatLon0.09_PT078H.grib2 2026-04-25 15:03 515K
20260425T12Z_MSC_RDPS_Albedo_Sfc_RLatLon0.09_PT078H.grib2 2026-04-25 15:03 162K
20260425T12Z_MSC_RDPS_CAPE_Sfc_RLatLon0.09_PT078H.grib2 2026-04-25 15:03 1.8M
20260425T12Z_MSC_RDPS_CIN_Sfc_RLatLon0.09_PT078H.grib2 2026-04-25 15:03 1.1M
20260425T12Z_MSC_RDPS_CloudWater_EAtm_RLatLon0.09_PT078H.grib2 2026-04-25 15:03 220K
20260425T12Z_MSC_RDPS_ConvectivePrecip-Accum_Sfc_RLatLon0.09_PT078H.grib2 2026-04-25 15:03 1.3M
20260425T12Z_MSC_RDPS_DewPointDepression_AGL-2m_RLatLon0.09_PT078H.grib2 2026-04-25 15:03 418K
20260425T12Z_MSC_RDPS_DewPointDepression_IsbL-0001_RLatLon0.09_PT078H.grib2 2026-04-25 15:03 193
20260425T12Z_MSC_RDPS_DewPointDepression_IsbL-0005_RLatLon0.09_PT078H.grib2 2026-04-25 15:03 193
20260425T12Z_MSC_RDPS_DewPointDepression_IsbL-0010_RLatLon0.09_PT078H.grib2 2026-04-25 15:03 193
20260425T12Z_MSC_RDPS_DewPointDepression_IsbL-0020_RLatLon0.09_PT078H.grib2 2026-04-25 15:03 193
20260425T12Z_MSC_RDPS_DewPointDepression_IsbL-0030_RLatLon0.09_PT078H.grib2 2026-04-25 15:03 193
20260425T12Z_MSC_RDPS_DewPointDepression_IsbL-0050_RLatLon0.09_PT078H.grib2 2026-04-25 15:03 87K
20260425T12Z_MSC_RDPS_DewPointDepression_IsbL-0100_RLatLon0.09_PT078H.grib2 2026-04-25 15:03 128K
20260425T12Z_MSC_RDPS_DewPointDepression_IsbL-0150_RLatLon0.09_PT078H.grib2 2026-04-25 15:03 151K
20260425T12Z_MSC_RDPS_DewPointDepression_IsbL-0175_RLatLon0.09_PT078H.grib2 2026-04-25 15:03 184K
20260425T12Z_MSC_RDPS_DewPointDepression_IsbL-0200_RLatLon0.09_PT078H.grib2 2026-04-25 15:03 224K
20260425T12Z_MSC_RDPS_DewPointDepression_IsbL-0225_RLatLon0.09_PT078H.grib2 2026-04-25 15:03 264K
20260425T12Z_MSC_RDPS_DewPointDepression_IsbL-0250_RLatLon0.09_PT078H.grib2 2026-04-25 15:03 296K
20260425T12Z_MSC_RDPS_DewPointDepression_IsbL-0275_RLatLon0.09_PT078H.grib2 2026-04-25 15:03 304K
20260425T12Z_MSC_RDPS_DewPointDepression_IsbL-0300_RLatLon0.09_PT078H.grib2 2026-04-25 15:03 321K
20260425T12Z_MSC_RDPS_DewPointDepression_IsbL-0350_RLatLon0.09_PT078H.grib2 2026-04-25 15:03 330K
20260425T12Z_MSC_RDPS_DewPointDepression_IsbL-0400_RLatLon0.09_PT078H.grib2 2026-04-25 15:03 342K
20260425T12Z_MSC_RDPS_DewPointDepression_IsbL-0450_RLatLon0.09_PT078H.grib2 2026-04-25 15:03 349K
20260425T12Z_MSC_RDPS_DewPointDepression_IsbL-0500_RLatLon0.09_PT078H.grib2 2026-04-25 15:03 354K
20260425T12Z_MSC_RDPS_DewPointDepression_IsbL-0550_RLatLon0.09_PT078H.grib2 2026-04-25 15:03 366K
20260425T12Z_MSC_RDPS_DewPointDepression_IsbL-0600_RLatLon0.09_PT078H.grib2 2026-04-25 15:03 377K
20260425T12Z_MSC_RDPS_DewPointDepression_IsbL-0650_RLatLon0.09_PT078H.grib2 2026-04-25 15:03 384K
20260425T12Z_MSC_RDPS_DewPointDepression_IsbL-0700_RLatLon0.09_PT078H.grib2 2026-04-25 15:03 400K
20260425T12Z_MSC_RDPS_DewPointDepression_IsbL-0750_RLatLon0.09_PT078H.grib2 2026-04-25 15:03 425K
20260425T12Z_MSC_RDPS_DewPointDepression_IsbL-0800_RLatLon0.09_PT078H.grib2 2026-04-25 15:03 456K
20260425T12Z_MSC_RDPS_DewPointDepression_IsbL-0850_RLatLon0.09_PT078H.grib2 2026-04-25 15:03 481K
20260425T12Z_MSC_RDPS_DewPointDepression_IsbL-0875_RLatLon0.09_PT078H.grib2 2026-04-25 15:03 480K
20260425T12Z_MSC_RDPS_DewPointDepression_IsbL-0900_RLatLon0.09_PT078H.grib2 2026-04-25 15:03 468K
20260425T12Z_MSC_RDPS_DewPointDepression_IsbL-0925_RLatLon0.09_PT078H.grib2 2026-04-25 15:03 455K
20260425T12Z_MSC_RDPS_DewPointDepression_IsbL-0950_RLatLon0.09_PT078H.grib2 2026-04-25 15:03 445K
20260425T12Z_MSC_RDPS_DewPointDepression_IsbL-0970_RLatLon0.09_PT078H.grib2 2026-04-25 15:03 438K
20260425T12Z_MSC_RDPS_DewPointDepression_IsbL-0985_RLatLon0.09_PT078H.grib2 2026-04-25 15:03 434K
20260425T12Z_MSC_RDPS_DewPointDepression_IsbL-1000_RLatLon0.09_PT078H.grib2 2026-04-25 15:03 430K
20260425T12Z_MSC_RDPS_DewPointDepression_IsbL-1015_RLatLon0.09_PT078H.grib2 2026-04-25 15:03 424K
20260425T12Z_MSC_RDPS_DewPoint_AGL-2m_RLatLon0.09_PT078H.grib2 2026-04-25 15:03 402K
20260425T12Z_MSC_RDPS_DownwardLongwaveRadiationFlux-Accum_Sfc_RLatLon0.09_PT078H.grib2 2026-04-25 15:03 439K
20260425T12Z_MSC_RDPS_DownwardShortwaveRadiationFlux-Accum_NTAtm_RLatLon0.09_PT078H.grib2 2026-04-25 15:03 111K
20260425T12Z_MSC_RDPS_DownwardShortwaveRadiationFlux-Accum_Sfc_RLatLon0.09_PT078H.grib2 2026-04-25 15:03 645K
20260425T12Z_MSC_RDPS_FreezingRain-Accum12h_Sfc_RLatLon0.09_PT078H.grib2 2026-04-25 15:03 98K
20260425T12Z_MSC_RDPS_FreezingRain-Accum1h_Sfc_RLatLon0.09_PT078H.grib2 2026-04-25 15:03 16K
20260425T12Z_MSC_RDPS_FreezingRain-Accum24h_Sfc_RLatLon0.09_PT078H.grib2 2026-04-25 15:03 101K
20260425T12Z_MSC_RDPS_FreezingRain-Accum3h_Sfc_RLatLon0.09_PT078H.grib2 2026-04-25 15:03 30K
20260425T12Z_MSC_RDPS_FreezingRain-Accum6h_Sfc_RLatLon0.09_PT078H.grib2 2026-04-25 15:03 67K
20260425T12Z_MSC_RDPS_FreezingRain-Accum_Sfc_RLatLon0.09_PT078H.grib2 2026-04-25 15:03 192K
20260425T12Z_MSC_RDPS_GeopotentialHeight_IsbL-0001_RLatLon0.09_PT078H.grib2 2026-04-25 15:03 250K
20260425T12Z_MSC_RDPS_GeopotentialHeight_IsbL-0005_RLatLon0.09_PT078H.grib2 2026-04-25 15:03 317K
20260425T12Z_MSC_RDPS_GeopotentialHeight_IsbL-0010_RLatLon0.09_PT078H.grib2 2026-04-25 15:03 346K
20260425T12Z_MSC_RDPS_GeopotentialHeight_IsbL-0020_RLatLon0.09_PT078H.grib2 2026-04-25 15:03 313K
20260425T12Z_MSC_RDPS_GeopotentialHeight_IsbL-0030_RLatLon0.09_PT078H.grib2 2026-04-25 15:03 315K
20260425T12Z_MSC_RDPS_GeopotentialHeight_IsbL-0050_RLatLon0.09_PT078H.grib2 2026-04-25 15:03 347K
20260425T12Z_MSC_RDPS_GeopotentialHeight_IsbL-0100_RLatLon0.09_PT078H.grib2 2026-04-25 15:03 292K
20260425T12Z_MSC_RDPS_GeopotentialHeight_IsbL-0150_RLatLon0.09_PT078H.grib2 2026-04-25 15:03 234K
20260425T12Z_MSC_RDPS_GeopotentialHeight_IsbL-0175_RLatLon0.09_PT078H.grib2 2026-04-25 15:03 269K
20260425T12Z_MSC_RDPS_GeopotentialHeight_IsbL-0200_RLatLon0.09_PT078H.grib2 2026-04-25 15:03 271K
20260425T12Z_MSC_RDPS_GeopotentialHeight_IsbL-0225_RLatLon0.09_PT078H.grib2 2026-04-25 15:03 270K
20260425T12Z_MSC_RDPS_GeopotentialHeight_IsbL-0250_RLatLon0.09_PT078H.grib2 2026-04-25 15:03 270K
20260425T12Z_MSC_RDPS_GeopotentialHeight_IsbL-0275_RLatLon0.09_PT078H.grib2 2026-04-25 15:03 270K
20260425T12Z_MSC_RDPS_GeopotentialHeight_IsbL-0300_RLatLon0.09_PT078H.grib2 2026-04-25 15:03 269K
20260425T12Z_MSC_RDPS_GeopotentialHeight_IsbL-0350_RLatLon0.09_PT078H.grib2 2026-04-25 15:03 235K
20260425T12Z_MSC_RDPS_GeopotentialHeight_IsbL-0400_RLatLon0.09_PT078H.grib2 2026-04-25 15:03 232K
20260425T12Z_MSC_RDPS_GeopotentialHeight_IsbL-0450_RLatLon0.09_PT078H.grib2 2026-04-25 15:03 228K
20260425T12Z_MSC_RDPS_GeopotentialHeight_IsbL-0500_RLatLon0.09_PT078H.grib2 2026-04-25 15:03 294K
20260425T12Z_MSC_RDPS_GeopotentialHeight_IsbL-0550_RLatLon0.09_PT078H.grib2 2026-04-25 15:03 291K
20260425T12Z_MSC_RDPS_GeopotentialHeight_IsbL-0600_RLatLon0.09_PT078H.grib2 2026-04-25 15:03 287K
20260425T12Z_MSC_RDPS_GeopotentialHeight_IsbL-0650_RLatLon0.09_PT078H.grib2 2026-04-25 15:03 286K
20260425T12Z_MSC_RDPS_GeopotentialHeight_IsbL-0700_RLatLon0.09_PT078H.grib2 2026-04-25 15:03 257K
20260425T12Z_MSC_RDPS_GeopotentialHeight_IsbL-0750_RLatLon0.09_PT078H.grib2 2026-04-25 15:03 259K
20260425T12Z_MSC_RDPS_GeopotentialHeight_IsbL-0800_RLatLon0.09_PT078H.grib2 2026-04-25 15:03 350K
20260425T12Z_MSC_RDPS_GeopotentialHeight_IsbL-0850_RLatLon0.09_PT078H.grib2 2026-04-25 15:03 361K
20260425T12Z_MSC_RDPS_GeopotentialHeight_IsbL-0875_RLatLon0.09_PT078H.grib2 2026-04-25 15:03 365K
20260425T12Z_MSC_RDPS_GeopotentialHeight_IsbL-0900_RLatLon0.09_PT078H.grib2 2026-04-25 15:03 369K
20260425T12Z_MSC_RDPS_GeopotentialHeight_IsbL-0925_RLatLon0.09_PT078H.grib2 2026-04-25 15:03 371K
20260425T12Z_MSC_RDPS_GeopotentialHeight_IsbL-0950_RLatLon0.09_PT078H.grib2 2026-04-25 15:03 374K
20260425T12Z_MSC_RDPS_GeopotentialHeight_IsbL-0970_RLatLon0.09_PT078H.grib2 2026-04-25 15:03 382K
20260425T12Z_MSC_RDPS_GeopotentialHeight_IsbL-0985_RLatLon0.09_PT078H.grib2 2026-04-25 15:03 391K
20260425T12Z_MSC_RDPS_GeopotentialHeight_IsbL-1000_RLatLon0.09_PT078H.grib2 2026-04-25 15:03 404K
20260425T12Z_MSC_RDPS_GeopotentialHeight_IsbL-1015_RLatLon0.09_PT078H.grib2 2026-04-25 15:03 419K
20260425T12Z_MSC_RDPS_Humidex_Sfc_RLatLon0.09_PT078H.grib2 2026-04-25 15:03 2.4M
20260425T12Z_MSC_RDPS_IcePellets-Accum12h_Sfc_RLatLon0.09_PT078H.grib2 2026-04-25 15:03 19K
20260425T12Z_MSC_RDPS_IcePellets-Accum1h_Sfc_RLatLon0.09_PT078H.grib2 2026-04-25 15:03 9.9K
20260425T12Z_MSC_RDPS_IcePellets-Accum24h_Sfc_RLatLon0.09_PT078H.grib2 2026-04-25 15:03 14K
20260425T12Z_MSC_RDPS_IcePellets-Accum3h_Sfc_RLatLon0.09_PT078H.grib2 2026-04-25 15:03 11K
20260425T12Z_MSC_RDPS_IcePellets-Accum6h_Sfc_RLatLon0.09_PT078H.grib2 2026-04-25 15:03 15K
20260425T12Z_MSC_RDPS_IcePellets-Accum_Sfc_RLatLon0.09_PT078H.grib2 2026-04-25 15:03 46K
20260425T12Z_MSC_RDPS_KIndex_Sfc_RLatLon0.09_PT078H.grib2 2026-04-25 15:03 2.5M
20260425T12Z_MSC_RDPS_LatentHeatNetFlux_Sfc_RLatLon0.09_PT078H.grib2 2026-04-25 15:03 311K
20260425T12Z_MSC_RDPS_LiftedIndex-MU-VT_IsbL-0500_RLatLon0.09_PT078H.grib2 2026-04-25 15:03 2.4M
20260425T12Z_MSC_RDPS_NetLongwaveRadiationFlux-Accum_Sfc_RLatLon0.09_PT078H.grib2 2026-04-25 15:03 487K
20260425T12Z_MSC_RDPS_NetShortwaveRadiationFlux-Accum_Sfc_RLatLon0.09_PT078H.grib2 2026-04-25 15:03 649K
20260425T12Z_MSC_RDPS_PlanetaryBoundaryLayerHeight_Sfc_RLatLon0.09_PT078H.grib2 2026-04-25 15:03 1.0M
20260425T12Z_MSC_RDPS_Precip-Accum12h_Sfc_RLatLon0.09_PT078H.grib2 2026-04-25 15:03 1.6M
20260425T12Z_MSC_RDPS_Precip-Accum1h_Sfc_RLatLon0.09_PT078H.grib2 2026-04-25 15:03 1.3M
20260425T12Z_MSC_RDPS_Precip-Accum24h_Sfc_RLatLon0.09_PT078H.grib2 2026-04-25 15:03 1.8M
20260425T12Z_MSC_RDPS_Precip-Accum3h_Sfc_RLatLon0.09_PT078H.grib2 2026-04-25 15:03 1.5M
20260425T12Z_MSC_RDPS_Precip-Accum6h_Sfc_RLatLon0.09_PT078H.grib2 2026-04-25 15:03 1.6M
20260425T12Z_MSC_RDPS_Precip-Accum_Sfc_RLatLon0.09_PT078H.grib2 2026-04-25 15:03 2.2M
20260425T12Z_MSC_RDPS_PrecipRate_Sfc_RLatLon0.09_PT078H.grib2 2026-04-25 15:03 123K
20260425T12Z_MSC_RDPS_PrecipType-Instant_Sfc_RLatLon0.09_PT078H.grib2 2026-04-25 15:03 574K
20260425T12Z_MSC_RDPS_Pressure-Trend3h_Sfc_RLatLon0.09_PT078H.grib2 2026-04-25 15:03 1.2M
20260425T12Z_MSC_RDPS_Pressure_MSL_RLatLon0.09_PT078H.grib2 2026-04-25 15:03 302K
20260425T12Z_MSC_RDPS_Pressure_PVU-1.5_RLatLon0.09_PT078H.grib2 2026-04-25 15:03 2.3M
20260425T12Z_MSC_RDPS_Pressure_PVU-1_RLatLon0.09_PT078H.grib2 2026-04-25 15:03 2.4M
20260425T12Z_MSC_RDPS_Pressure_PVU-2_RLatLon0.09_PT078H.grib2 2026-04-25 15:03 2.4M
20260425T12Z_MSC_RDPS_Pressure_Sfc_RLatLon0.09_PT078H.grib2 2026-04-25 15:03 502K
20260425T12Z_MSC_RDPS_RadiativeTemp_Sfc_RLatLon0.09_PT078H.grib2 2026-04-25 15:03 327K
20260425T12Z_MSC_RDPS_Rain-Accum12h_Sfc_RLatLon0.09_PT078H.grib2 2026-04-25 15:03 1.1M
20260425T12Z_MSC_RDPS_Rain-Accum1h_Sfc_RLatLon0.09_PT078H.grib2 2026-04-25 15:03 637K
20260425T12Z_MSC_RDPS_Rain-Accum24h_Sfc_RLatLon0.09_PT078H.grib2 2026-04-25 15:03 1.3M
20260425T12Z_MSC_RDPS_Rain-Accum3h_Sfc_RLatLon0.09_PT078H.grib2 2026-04-25 15:03 727K
20260425T12Z_MSC_RDPS_Rain-Accum6h_Sfc_RLatLon0.09_PT078H.grib2 2026-04-25 15:03 963K
20260425T12Z_MSC_RDPS_Rain-Accum_Sfc_RLatLon0.09_PT078H.grib2 2026-04-25 15:03 1.7M
20260425T12Z_MSC_RDPS_RelativeHumidity_AGL-2m_RLatLon0.09_PT078H.grib2 2026-04-25 15:03 1.0M
20260425T12Z_MSC_RDPS_RelativeHumidity_IsbL-0010_RLatLon0.09_PT078H.grib2 2026-04-25 15:03 616K
20260425T12Z_MSC_RDPS_RelativeHumidity_IsbL-0020_RLatLon0.09_PT078H.grib2 2026-04-25 15:03 644K
20260425T12Z_MSC_RDPS_RelativeHumidity_IsbL-0030_RLatLon0.09_PT078H.grib2 2026-04-25 15:03 612K
20260425T12Z_MSC_RDPS_RelativeHumidity_IsbL-0050_RLatLon0.09_PT078H.grib2 2026-04-25 15:03 378K
20260425T12Z_MSC_RDPS_RelativeHumidity_IsbL-0100_RLatLon0.09_PT078H.grib2 2026-04-25 15:03 283K
20260425T12Z_MSC_RDPS_RelativeHumidity_IsbL-0150_RLatLon0.09_PT078H.grib2 2026-04-25 15:03 413K
20260425T12Z_MSC_RDPS_RelativeHumidity_IsbL-0175_RLatLon0.09_PT078H.grib2 2026-04-25 15:03 494K
20260425T12Z_MSC_RDPS_RelativeHumidity_IsbL-0200_RLatLon0.09_PT078H.grib2 2026-04-25 15:03 564K
20260425T12Z_MSC_RDPS_RelativeHumidity_IsbL-0225_RLatLon0.09_PT078H.grib2 2026-04-25 15:03 626K
20260425T12Z_MSC_RDPS_RelativeHumidity_IsbL-0250_RLatLon0.09_PT078H.grib2 2026-04-25 15:03 690K
20260425T12Z_MSC_RDPS_RelativeHumidity_IsbL-0275_RLatLon0.09_PT078H.grib2 2026-04-25 15:03 716K
20260425T12Z_MSC_RDPS_RelativeHumidity_IsbL-0300_RLatLon0.09_PT078H.grib2 2026-04-25 15:03 760K
20260425T12Z_MSC_RDPS_RelativeHumidity_IsbL-0350_RLatLon0.09_PT078H.grib2 2026-04-25 15:03 784K
20260425T12Z_MSC_RDPS_RelativeHumidity_IsbL-0400_RLatLon0.09_PT078H.grib2 2026-04-25 15:03 797K
20260425T12Z_MSC_RDPS_RelativeHumidity_IsbL-0450_RLatLon0.09_PT078H.grib2 2026-04-25 15:03 803K
20260425T12Z_MSC_RDPS_RelativeHumidity_IsbL-0500_RLatLon0.09_PT078H.grib2 2026-04-25 15:03 808K
20260425T12Z_MSC_RDPS_RelativeHumidity_IsbL-0550_RLatLon0.09_PT078H.grib2 2026-04-25 15:03 825K
20260425T12Z_MSC_RDPS_RelativeHumidity_IsbL-0600_RLatLon0.09_PT078H.grib2 2026-04-25 15:03 842K
20260425T12Z_MSC_RDPS_RelativeHumidity_IsbL-0650_RLatLon0.09_PT078H.grib2 2026-04-25 15:03 855K
20260425T12Z_MSC_RDPS_RelativeHumidity_IsbL-0700_RLatLon0.09_PT078H.grib2 2026-04-25 15:03 885K
20260425T12Z_MSC_RDPS_RelativeHumidity_IsbL-0750_RLatLon0.09_PT078H.grib2 2026-04-25 15:03 931K
20260425T12Z_MSC_RDPS_RelativeHumidity_IsbL-0800_RLatLon0.09_PT078H.grib2 2026-04-25 15:03 1.0M
20260425T12Z_MSC_RDPS_RelativeHumidity_IsbL-0850_RLatLon0.09_PT078H.grib2 2026-04-25 15:03 1.0M
20260425T12Z_MSC_RDPS_RelativeHumidity_IsbL-0875_RLatLon0.09_PT078H.grib2 2026-04-25 15:03 1.1M
20260425T12Z_MSC_RDPS_RelativeHumidity_IsbL-0900_RLatLon0.09_PT078H.grib2 2026-04-25 15:03 1.1M
20260425T12Z_MSC_RDPS_RelativeHumidity_IsbL-0925_RLatLon0.09_PT078H.grib2 2026-04-25 15:03 1.1M
20260425T12Z_MSC_RDPS_RelativeHumidity_IsbL-0950_RLatLon0.09_PT078H.grib2 2026-04-25 15:03 1.1M
20260425T12Z_MSC_RDPS_RelativeHumidity_IsbL-0970_RLatLon0.09_PT078H.grib2 2026-04-25 15:03 1.1M
20260425T12Z_MSC_RDPS_RelativeHumidity_IsbL-0985_RLatLon0.09_PT078H.grib2 2026-04-25 15:03 1.0M
20260425T12Z_MSC_RDPS_RelativeHumidity_IsbL-1000_RLatLon0.09_PT078H.grib2 2026-04-25 15:03 1.0M
20260425T12Z_MSC_RDPS_RelativeHumidity_IsbL-1015_RLatLon0.09_PT078H.grib2 2026-04-25 15:03 1.0M
20260425T12Z_MSC_RDPS_Runoff-Accum_Sfc_RLatLon0.09_PT078H.grib2 2026-04-25 15:03 63K
20260425T12Z_MSC_RDPS_SWEATIndex_Sfc_RLatLon0.09_PT078H.grib2 2026-04-25 15:03 2.4M
20260425T12Z_MSC_RDPS_SeeingIndex_EAtm_RLatLon0.09_PT078H.grib2 2026-04-25 15:03 1.0M
20260425T12Z_MSC_RDPS_SensibleHeatNetFlux_Sfc_RLatLon0.09_PT078H.grib2 2026-04-25 15:03 371K
20260425T12Z_MSC_RDPS_ShowalterIndex_IsbL-0500_RLatLon0.09_PT078H.grib2 2026-04-25 15:03 2.6M
20260425T12Z_MSC_RDPS_SkyTransparencyIndex_EAtm_RLatLon0.09_PT078H.grib2 2026-04-25 15:03 704K
20260425T12Z_MSC_RDPS_Snow-Accum12h_Sfc_RLatLon0.09_PT078H.grib2 2026-04-25 15:03 617K
20260425T12Z_MSC_RDPS_Snow-Accum1h_Sfc_RLatLon0.09_PT078H.grib2 2026-04-25 15:03 481K
20260425T12Z_MSC_RDPS_Snow-Accum24h_Sfc_RLatLon0.09_PT078H.grib2 2026-04-25 15:03 694K
20260425T12Z_MSC_RDPS_Snow-Accum3h_Sfc_RLatLon0.09_PT078H.grib2 2026-04-25 15:03 400K
20260425T12Z_MSC_RDPS_Snow-Accum6h_Sfc_RLatLon0.09_PT078H.grib2 2026-04-25 15:03 532K
20260425T12Z_MSC_RDPS_Snow-Accum_Sfc_RLatLon0.09_PT078H.grib2 2026-04-25 15:03 897K
20260425T12Z_MSC_RDPS_SnowDensity_Sfc_RLatLon0.09_PT078H.grib2 2026-04-25 15:03 187K
20260425T12Z_MSC_RDPS_SnowDepth_Sfc_RLatLon0.09_PT078H.grib2 2026-04-25 15:03 727K
20260425T12Z_MSC_RDPS_SoilTemp_DBS-0to10cm_RLatLon0.09_PT078H.grib2 2026-04-25 15:03 243K
20260425T12Z_MSC_RDPS_SoilTemp_Sfc_RLatLon0.09_PT078H.grib2 2026-04-25 15:03 297K
20260425T12Z_MSC_RDPS_SoilVolumetricIceContent_Sfc_RLatLon0.09_PT078H.grib2 2026-04-25 15:03 168K
20260425T12Z_MSC_RDPS_SoilVolumetricWaterContent_DBS-0to10cm_RLatLon0.09_PT078H.grib2 2026-04-25 15:03 262K
20260425T12Z_MSC_RDPS_SoilVolumetricWaterContent_DBS-0to1cm_RLatLon0.09_PT078H.grib2 2026-04-25 15:03 342K
20260425T12Z_MSC_RDPS_SpecificHumidity_AGL-120m_RLatLon0.09_PT078H.grib2 2026-04-25 15:03 494K
20260425T12Z_MSC_RDPS_SpecificHumidity_AGL-2m_RLatLon0.09_PT078H.grib2 2026-04-25 15:03 664K
20260425T12Z_MSC_RDPS_SpecificHumidity_AGL-40m_RLatLon0.09_PT078H.grib2 2026-04-25 15:03 499K
20260425T12Z_MSC_RDPS_SpecificHumidity_AGL-80m_RLatLon0.09_PT078H.grib2 2026-04-25 15:03 495K
20260425T12Z_MSC_RDPS_SpecificHumidity_IsbL-0001_RLatLon0.09_PT078H.grib2 2026-04-25 15:03 350K
20260425T12Z_MSC_RDPS_SpecificHumidity_IsbL-0005_RLatLon0.09_PT078H.grib2 2026-04-25 15:03 412K
20260425T12Z_MSC_RDPS_SpecificHumidity_IsbL-0010_RLatLon0.09_PT078H.grib2 2026-04-25 15:03 386K
20260425T12Z_MSC_RDPS_SpecificHumidity_IsbL-0020_RLatLon0.09_PT078H.grib2 2026-04-25 15:03 375K
20260425T12Z_MSC_RDPS_SpecificHumidity_IsbL-0030_RLatLon0.09_PT078H.grib2 2026-04-25 15:03 466K
20260425T12Z_MSC_RDPS_SpecificHumidity_IsbL-0050_RLatLon0.09_PT078H.grib2 2026-04-25 15:03 368K
20260425T12Z_MSC_RDPS_SpecificHumidity_IsbL-0100_RLatLon0.09_PT078H.grib2 2026-04-25 15:03 422K
20260425T12Z_MSC_RDPS_SpecificHumidity_IsbL-0150_RLatLon0.09_PT078H.grib2 2026-04-25 15:03 356K
20260425T12Z_MSC_RDPS_SpecificHumidity_IsbL-0175_RLatLon0.09_PT078H.grib2 2026-04-25 15:03 466K
20260425T12Z_MSC_RDPS_SpecificHumidity_IsbL-0200_RLatLon0.09_PT078H.grib2 2026-04-25 15:03 460K
20260425T12Z_MSC_RDPS_SpecificHumidity_IsbL-0225_RLatLon0.09_PT078H.grib2 2026-04-25 15:03 458K
20260425T12Z_MSC_RDPS_SpecificHumidity_IsbL-0250_RLatLon0.09_PT078H.grib2 2026-04-25 15:03 556K
20260425T12Z_MSC_RDPS_SpecificHumidity_IsbL-0275_RLatLon0.09_PT078H.grib2 2026-04-25 15:03 471K
20260425T12Z_MSC_RDPS_SpecificHumidity_IsbL-0300_RLatLon0.09_PT078H.grib2 2026-04-25 15:03 542K
20260425T12Z_MSC_RDPS_SpecificHumidity_IsbL-0350_RLatLon0.09_PT078H.grib2 2026-04-25 15:03 538K
20260425T12Z_MSC_RDPS_SpecificHumidity_IsbL-0400_RLatLon0.09_PT078H.grib2 2026-04-25 15:03 518K
20260425T12Z_MSC_RDPS_SpecificHumidity_IsbL-0450_RLatLon0.09_PT078H.grib2 2026-04-25 15:03 570K
20260425T12Z_MSC_RDPS_SpecificHumidity_IsbL-0500_RLatLon0.09_PT078H.grib2 2026-04-25 15:03 504K
20260425T12Z_MSC_RDPS_SpecificHumidity_IsbL-0550_RLatLon0.09_PT078H.grib2 2026-04-25 15:03 561K
20260425T12Z_MSC_RDPS_SpecificHumidity_IsbL-0600_RLatLon0.09_PT078H.grib2 2026-04-25 15:03 630K
20260425T12Z_MSC_RDPS_SpecificHumidity_IsbL-0650_RLatLon0.09_PT078H.grib2 2026-04-25 15:03 550K
20260425T12Z_MSC_RDPS_SpecificHumidity_IsbL-0700_RLatLon0.09_PT078H.grib2 2026-04-25 15:03 598K
20260425T12Z_MSC_RDPS_SpecificHumidity_IsbL-0750_RLatLon0.09_PT078H.grib2 2026-04-25 15:03 657K
20260425T12Z_MSC_RDPS_SpecificHumidity_IsbL-0800_RLatLon0.09_PT078H.grib2 2026-04-25 15:03 738K
20260425T12Z_MSC_RDPS_SpecificHumidity_IsbL-0850_RLatLon0.09_PT078H.grib2 2026-04-25 15:03 811K
20260425T12Z_MSC_RDPS_SpecificHumidity_IsbL-0875_RLatLon0.09_PT078H.grib2 2026-04-25 15:03 834K
20260425T12Z_MSC_RDPS_SpecificHumidity_IsbL-0900_RLatLon0.09_PT078H.grib2 2026-04-25 15:03 704K
20260425T12Z_MSC_RDPS_SpecificHumidity_IsbL-0925_RLatLon0.09_PT078H.grib2 2026-04-25 15:03 704K
20260425T12Z_MSC_RDPS_SpecificHumidity_IsbL-0950_RLatLon0.09_PT078H.grib2 2026-04-25 15:03 703K
20260425T12Z_MSC_RDPS_SpecificHumidity_IsbL-0970_RLatLon0.09_PT078H.grib2 2026-04-25 15:03 697K
20260425T12Z_MSC_RDPS_SpecificHumidity_IsbL-0985_RLatLon0.09_PT078H.grib2 2026-04-25 15:03 691K
20260425T12Z_MSC_RDPS_SpecificHumidity_IsbL-1000_RLatLon0.09_PT078H.grib2 2026-04-25 15:03 686K
20260425T12Z_MSC_RDPS_SpecificHumidity_IsbL-1015_RLatLon0.09_PT078H.grib2 2026-04-25 15:03 677K
20260425T12Z_MSC_RDPS_SpecificHumidity_Sfc_RLatLon0.09_PT078H.grib2 2026-04-25 15:03 338K
20260425T12Z_MSC_RDPS_StormRelativeHelicity_EtaL-10000_RLatLon0.09_PT078H.grib2 2026-04-25 15:03 1.1M
20260425T12Z_MSC_RDPS_StormSeverityIndex_EtaL-10000_RLatLon0.09_PT078H.grib2 2026-04-25 15:03 1.1M
20260425T12Z_MSC_RDPS_Thickness_IsbL-0850to0700_RLatLon0.09_PT078H.grib2 2026-04-25 15:03 179K
20260425T12Z_MSC_RDPS_Thickness_IsbL-1000to0500_RLatLon0.09_PT078H.grib2 2026-04-25 15:03 204K
20260425T12Z_MSC_RDPS_Thickness_IsbL-1000to0850_RLatLon0.09_PT078H.grib2 2026-04-25 15:03 191K
20260425T12Z_MSC_RDPS_TotalCloudCover_Sfc_RLatLon0.09_PT078H.grib2 2026-04-25 15:03 658K
20260425T12Z_MSC_RDPS_TotalTotalsIndex_Sfc_RLatLon0.09_PT078H.grib2 2026-04-25 15:03 2.4M
20260425T12Z_MSC_RDPS_UVIndex-ClearSky_Sfc_RLatLon0.09_PT078H.grib2 2026-04-25 15:03 231K
20260425T12Z_MSC_RDPS_UVIndex_Sfc_RLatLon0.09_PT078H.grib2 2026-04-25 15:03 533K
20260425T12Z_MSC_RDPS_UpwardLongwaveRadiationFlux_NTAtm_RLatLon0.09_PT078H.grib2 2026-04-25 15:03 386K
20260425T12Z_MSC_RDPS_UpwardShortwaveRadiationFlux_NTAtm_RLatLon0.09_PT078H.grib2 2026-04-25 15:03 559K
20260425T12Z_MSC_RDPS_VerticalVelocity_IsbL-0250_RLatLon0.09_PT078H.grib2 2026-04-25 15:03 437K
20260425T12Z_MSC_RDPS_VerticalVelocity_IsbL-0500_RLatLon0.09_PT078H.grib2 2026-04-25 15:03 508K
20260425T12Z_MSC_RDPS_VerticalVelocity_IsbL-0700_RLatLon0.09_PT078H.grib2 2026-04-25 15:03 599K
20260425T12Z_MSC_RDPS_VerticalVelocity_IsbL-0850_RLatLon0.09_PT078H.grib2 2026-04-25 15:03 702K
20260425T12Z_MSC_RDPS_VerticalWindShear_EtaL-6500_RLatLon0.09_PT078H.grib2 2026-04-25 15:03 1.2M
20260425T12Z_MSC_RDPS_WindChill_Sfc_RLatLon0.09_PT078H.grib2 2026-04-25 15:03 1.1M
20260425T12Z_MSC_RDPS_WindDir_AGL-10m_RLatLon0.09_PT078H.grib2 2026-04-25 15:03 966K
20260425T12Z_MSC_RDPS_WindDir_AGL-120m_RLatLon0.09_PT078H.grib2 2026-04-25 15:03 610K
20260425T12Z_MSC_RDPS_WindDir_AGL-40m_RLatLon0.09_PT078H.grib2 2026-04-25 15:03 632K
20260425T12Z_MSC_RDPS_WindDir_AGL-80m_RLatLon0.09_PT078H.grib2 2026-04-25 15:03 619K
20260425T12Z_MSC_RDPS_WindDir_IsbL-0001_RLatLon0.09_PT078H.grib2 2026-04-25 15:03 292K
20260425T12Z_MSC_RDPS_WindDir_IsbL-0005_RLatLon0.09_PT078H.grib2 2026-04-25 15:03 348K
20260425T12Z_MSC_RDPS_WindDir_IsbL-0010_RLatLon0.09_PT078H.grib2 2026-04-25 15:03 375K
20260425T12Z_MSC_RDPS_WindDir_IsbL-0020_RLatLon0.09_PT078H.grib2 2026-04-25 15:03 410K
20260425T12Z_MSC_RDPS_WindDir_IsbL-0030_RLatLon0.09_PT078H.grib2 2026-04-25 15:03 401K
20260425T12Z_MSC_RDPS_WindDir_IsbL-0050_RLatLon0.09_PT078H.grib2 2026-04-25 15:03 422K
20260425T12Z_MSC_RDPS_WindDir_IsbL-0100_RLatLon0.09_PT078H.grib2 2026-04-25 15:03 408K
20260425T12Z_MSC_RDPS_WindDir_IsbL-0150_RLatLon0.09_PT078H.grib2 2026-04-25 15:03 407K
20260425T12Z_MSC_RDPS_WindDir_IsbL-0175_RLatLon0.09_PT078H.grib2 2026-04-25 15:03 426K
20260425T12Z_MSC_RDPS_WindDir_IsbL-0200_RLatLon0.09_PT078H.grib2 2026-04-25 15:03 439K
20260425T12Z_MSC_RDPS_WindDir_IsbL-0225_RLatLon0.09_PT078H.grib2 2026-04-25 15:03 444K
20260425T12Z_MSC_RDPS_WindDir_IsbL-0250_RLatLon0.09_PT078H.grib2 2026-04-25 15:03 452K
20260425T12Z_MSC_RDPS_WindDir_IsbL-0275_RLatLon0.09_PT078H.grib2 2026-04-25 15:03 473K
20260425T12Z_MSC_RDPS_WindDir_IsbL-0300_RLatLon0.09_PT078H.grib2 2026-04-25 15:03 471K
20260425T12Z_MSC_RDPS_WindDir_IsbL-0350_RLatLon0.09_PT078H.grib2 2026-04-25 15:03 493K
20260425T12Z_MSC_RDPS_WindDir_IsbL-0400_RLatLon0.09_PT078H.grib2 2026-04-25 15:03 511K
20260425T12Z_MSC_RDPS_WindDir_IsbL-0450_RLatLon0.09_PT078H.grib2 2026-04-25 15:03 520K
20260425T12Z_MSC_RDPS_WindDir_IsbL-0500_RLatLon0.09_PT078H.grib2 2026-04-25 15:03 534K
20260425T12Z_MSC_RDPS_WindDir_IsbL-0550_RLatLon0.09_PT078H.grib2 2026-04-25 15:03 548K
20260425T12Z_MSC_RDPS_WindDir_IsbL-0600_RLatLon0.09_PT078H.grib2 2026-04-25 15:03 572K
20260425T12Z_MSC_RDPS_WindDir_IsbL-0650_RLatLon0.09_PT078H.grib2 2026-04-25 15:03 611K
20260425T12Z_MSC_RDPS_WindDir_IsbL-0700_RLatLon0.09_PT078H.grib2 2026-04-25 15:03 651K
20260425T12Z_MSC_RDPS_WindDir_IsbL-0750_RLatLon0.09_PT078H.grib2 2026-04-25 15:03 702K
20260425T12Z_MSC_RDPS_WindDir_IsbL-0800_RLatLon0.09_PT078H.grib2 2026-04-25 15:03 775K
20260425T12Z_MSC_RDPS_WindDir_IsbL-0850_RLatLon0.09_PT078H.grib2 2026-04-25 15:03 859K
20260425T12Z_MSC_RDPS_WindDir_IsbL-0875_RLatLon0.09_PT078H.grib2 2026-04-25 15:03 888K
20260425T12Z_MSC_RDPS_WindDir_IsbL-0900_RLatLon0.09_PT078H.grib2 2026-04-25 15:03 903K
20260425T12Z_MSC_RDPS_WindDir_IsbL-0925_RLatLon0.09_PT078H.grib2 2026-04-25 15:03 907K
20260425T12Z_MSC_RDPS_WindDir_IsbL-0950_RLatLon0.09_PT078H.grib2 2026-04-25 15:03 908K
20260425T12Z_MSC_RDPS_WindDir_IsbL-0970_RLatLon0.09_PT078H.grib2 2026-04-25 15:03 914K
20260425T12Z_MSC_RDPS_WindDir_IsbL-0985_RLatLon0.09_PT078H.grib2 2026-04-25 15:03 924K
20260425T12Z_MSC_RDPS_WindDir_IsbL-1000_RLatLon0.09_PT078H.grib2 2026-04-25 15:03 939K
20260425T12Z_MSC_RDPS_WindDir_IsbL-1015_RLatLon0.09_PT078H.grib2 2026-04-25 15:03 956K
20260425T12Z_MSC_RDPS_WindGust-Max_AGL-10m_RLatLon0.09_PT078H.grib2 2026-04-25 15:03 946K
20260425T12Z_MSC_RDPS_WindGust-Min_AGL-10m_RLatLon0.09_PT078H.grib2 2026-04-25 15:03 1.0M
20260425T12Z_MSC_RDPS_WindGust_AGL-10m_RLatLon0.09_PT078H.grib2 2026-04-25 15:03 1.0M
20260425T12Z_MSC_RDPS_WindSpeed_AGL-10m_RLatLon0.09_PT078H.grib2 2026-04-25 15:03 844K
20260425T12Z_MSC_RDPS_WindSpeed_AGL-120m_RLatLon0.09_PT078H.grib2 2026-04-25 15:03 546K
20260425T12Z_MSC_RDPS_WindSpeed_AGL-40m_RLatLon0.09_PT078H.grib2 2026-04-25 15:03 541K
20260425T12Z_MSC_RDPS_WindSpeed_AGL-80m_RLatLon0.09_PT078H.grib2 2026-04-25 15:03 537K
20260425T12Z_MSC_RDPS_WindSpeed_IsbL-0001_RLatLon0.09_PT078H.grib2 2026-04-25 15:03 257K
20260425T12Z_MSC_RDPS_WindSpeed_IsbL-0005_RLatLon0.09_PT078H.grib2 2026-04-25 15:03 300K
20260425T12Z_MSC_RDPS_WindSpeed_IsbL-0010_RLatLon0.09_PT078H.grib2 2026-04-25 15:03 314K
20260425T12Z_MSC_RDPS_WindSpeed_IsbL-0020_RLatLon0.09_PT078H.grib2 2026-04-25 15:03 333K
20260425T12Z_MSC_RDPS_WindSpeed_IsbL-0030_RLatLon0.09_PT078H.grib2 2026-04-25 15:03 325K
20260425T12Z_MSC_RDPS_WindSpeed_IsbL-0050_RLatLon0.09_PT078H.grib2 2026-04-25 15:03 356K
20260425T12Z_MSC_RDPS_WindSpeed_IsbL-0100_RLatLon0.09_PT078H.grib2 2026-04-25 15:03 484K
20260425T12Z_MSC_RDPS_WindSpeed_IsbL-0150_RLatLon0.09_PT078H.grib2 2026-04-25 15:03 385K
20260425T12Z_MSC_RDPS_WindSpeed_IsbL-0175_RLatLon0.09_PT078H.grib2 2026-04-25 15:03 416K
20260425T12Z_MSC_RDPS_WindSpeed_IsbL-0200_RLatLon0.09_PT078H.grib2 2026-04-25 15:03 453K
20260425T12Z_MSC_RDPS_WindSpeed_IsbL-0225_RLatLon0.09_PT078H.grib2 2026-04-25 15:03 457K
20260425T12Z_MSC_RDPS_WindSpeed_IsbL-0250_RLatLon0.09_PT078H.grib2 2026-04-25 15:03 439K
20260425T12Z_MSC_RDPS_WindSpeed_IsbL-0275_RLatLon0.09_PT078H.grib2 2026-04-25 15:03 458K
20260425T12Z_MSC_RDPS_WindSpeed_IsbL-0300_RLatLon0.09_PT078H.grib2 2026-04-25 15:03 457K
20260425T12Z_MSC_RDPS_WindSpeed_IsbL-0350_RLatLon0.09_PT078H.grib2 2026-04-25 15:03 470K
20260425T12Z_MSC_RDPS_WindSpeed_IsbL-0400_RLatLon0.09_PT078H.grib2 2026-04-25 15:03 470K
20260425T12Z_MSC_RDPS_WindSpeed_IsbL-0450_RLatLon0.09_PT078H.grib2 2026-04-25 15:03 586K
20260425T12Z_MSC_RDPS_WindSpeed_IsbL-0500_RLatLon0.09_PT078H.grib2 2026-04-25 15:03 585K
20260425T12Z_MSC_RDPS_WindSpeed_IsbL-0550_RLatLon0.09_PT078H.grib2 2026-04-25 15:03 584K
20260425T12Z_MSC_RDPS_WindSpeed_IsbL-0600_RLatLon0.09_PT078H.grib2 2026-04-25 15:03 592K
20260425T12Z_MSC_RDPS_WindSpeed_IsbL-0650_RLatLon0.09_PT078H.grib2 2026-04-25 15:03 613K
20260425T12Z_MSC_RDPS_WindSpeed_IsbL-0700_RLatLon0.09_PT078H.grib2 2026-04-25 15:03 633K
20260425T12Z_MSC_RDPS_WindSpeed_IsbL-0750_RLatLon0.09_PT078H.grib2 2026-04-25 15:03 663K
20260425T12Z_MSC_RDPS_WindSpeed_IsbL-0800_RLatLon0.09_PT078H.grib2 2026-04-25 15:03 755K
20260425T12Z_MSC_RDPS_WindSpeed_IsbL-0850_RLatLon0.09_PT078H.grib2 2026-04-25 15:03 769K
20260425T12Z_MSC_RDPS_WindSpeed_IsbL-0875_RLatLon0.09_PT078H.grib2 2026-04-25 15:03 790K
20260425T12Z_MSC_RDPS_WindSpeed_IsbL-0900_RLatLon0.09_PT078H.grib2 2026-04-25 15:03 803K
20260425T12Z_MSC_RDPS_WindSpeed_IsbL-0925_RLatLon0.09_PT078H.grib2 2026-04-25 15:03 858K
20260425T12Z_MSC_RDPS_WindSpeed_IsbL-0950_RLatLon0.09_PT078H.grib2 2026-04-25 15:03 859K
20260425T12Z_MSC_RDPS_WindSpeed_IsbL-0970_RLatLon0.09_PT078H.grib2 2026-04-25 15:03 860K
20260425T12Z_MSC_RDPS_WindSpeed_IsbL-0985_RLatLon0.09_PT078H.grib2 2026-04-25 15:03 855K
20260425T12Z_MSC_RDPS_WindSpeed_IsbL-1000_RLatLon0.09_PT078H.grib2 2026-04-25 15:03 853K
20260425T12Z_MSC_RDPS_WindSpeed_IsbL-1015_RLatLon0.09_PT078H.grib2 2026-04-25 15:03 844K
20260425T12Z_MSC_RDPS_WindU_AGL-10m_RLatLon0.09_PT078H.grib2 2026-04-25 15:03 437K
20260425T12Z_MSC_RDPS_WindU_AGL-120m_RLatLon0.09_PT078H.grib2 2026-04-25 15:03 418K
20260425T12Z_MSC_RDPS_WindU_AGL-40m_RLatLon0.09_PT078H.grib2 2026-04-25 15:03 539K
20260425T12Z_MSC_RDPS_WindU_AGL-80m_RLatLon0.09_PT078H.grib2 2026-04-25 15:03 419K
20260425T12Z_MSC_RDPS_WindU_IsbL-0001_RLatLon0.09_PT078H.grib2 2026-04-25 15:03 297K
20260425T12Z_MSC_RDPS_WindU_IsbL-0005_RLatLon0.09_PT078H.grib2 2026-04-25 15:03 336K
20260425T12Z_MSC_RDPS_WindU_IsbL-0010_RLatLon0.09_PT078H.grib2 2026-04-25 15:03 304K
20260425T12Z_MSC_RDPS_WindU_IsbL-0020_RLatLon0.09_PT078H.grib2 2026-04-25 15:03 328K
20260425T12Z_MSC_RDPS_WindU_IsbL-0030_RLatLon0.09_PT078H.grib2 2026-04-25 15:03 355K
20260425T12Z_MSC_RDPS_WindU_IsbL-0050_RLatLon0.09_PT078H.grib2 2026-04-25 15:03 384K
20260425T12Z_MSC_RDPS_WindU_IsbL-0100_RLatLon0.09_PT078H.grib2 2026-04-25 15:03 342K
20260425T12Z_MSC_RDPS_WindU_IsbL-0150_RLatLon0.09_PT078H.grib2 2026-04-25 15:03 403K
20260425T12Z_MSC_RDPS_WindU_IsbL-0175_RLatLon0.09_PT078H.grib2 2026-04-25 15:03 430K
20260425T12Z_MSC_RDPS_WindU_IsbL-0200_RLatLon0.09_PT078H.grib2 2026-04-25 15:03 445K
20260425T12Z_MSC_RDPS_WindU_IsbL-0225_RLatLon0.09_PT078H.grib2 2026-04-25 15:03 447K
20260425T12Z_MSC_RDPS_WindU_IsbL-0250_RLatLon0.09_PT078H.grib2 2026-04-25 15:03 447K
20260425T12Z_MSC_RDPS_WindU_IsbL-0275_RLatLon0.09_PT078H.grib2 2026-04-25 15:03 465K
20260425T12Z_MSC_RDPS_WindU_IsbL-0300_RLatLon0.09_PT078H.grib2 2026-04-25 15:03 462K
20260425T12Z_MSC_RDPS_WindU_IsbL-0350_RLatLon0.09_PT078H.grib2 2026-04-25 15:03 473K
20260425T12Z_MSC_RDPS_WindU_IsbL-0400_RLatLon0.09_PT078H.grib2 2026-04-25 15:03 472K
20260425T12Z_MSC_RDPS_WindU_IsbL-0450_RLatLon0.09_PT078H.grib2 2026-04-25 15:03 471K
20260425T12Z_MSC_RDPS_WindU_IsbL-0500_RLatLon0.09_PT078H.grib2 2026-04-25 15:03 471K
20260425T12Z_MSC_RDPS_WindU_IsbL-0550_RLatLon0.09_PT078H.grib2 2026-04-25 15:03 472K
20260425T12Z_MSC_RDPS_WindU_IsbL-0600_RLatLon0.09_PT078H.grib2 2026-04-25 15:03 463K
20260425T12Z_MSC_RDPS_WindU_IsbL-0650_RLatLon0.09_PT078H.grib2 2026-04-25 15:03 482K
20260425T12Z_MSC_RDPS_WindU_IsbL-0700_RLatLon0.09_PT078H.grib2 2026-04-25 15:03 502K
20260425T12Z_MSC_RDPS_WindU_IsbL-0750_RLatLon0.09_PT078H.grib2 2026-04-25 15:03 529K
20260425T12Z_MSC_RDPS_WindU_IsbL-0800_RLatLon0.09_PT078H.grib2 2026-04-25 15:03 572K
20260425T12Z_MSC_RDPS_WindU_IsbL-0850_RLatLon0.09_PT078H.grib2 2026-04-25 15:03 624K
20260425T12Z_MSC_RDPS_WindU_IsbL-0875_RLatLon0.09_PT078H.grib2 2026-04-25 15:03 643K
20260425T12Z_MSC_RDPS_WindU_IsbL-0900_RLatLon0.09_PT078H.grib2 2026-04-25 15:03 653K
20260425T12Z_MSC_RDPS_WindU_IsbL-0925_RLatLon0.09_PT078H.grib2 2026-04-25 15:03 658K
20260425T12Z_MSC_RDPS_WindU_IsbL-0950_RLatLon0.09_PT078H.grib2 2026-04-25 15:03 655K
20260425T12Z_MSC_RDPS_WindU_IsbL-0970_RLatLon0.09_PT078H.grib2 2026-04-25 15:03 655K
20260425T12Z_MSC_RDPS_WindU_IsbL-0985_RLatLon0.09_PT078H.grib2 2026-04-25 15:03 654K
20260425T12Z_MSC_RDPS_WindU_IsbL-1000_RLatLon0.09_PT078H.grib2 2026-04-25 15:03 792K
20260425T12Z_MSC_RDPS_WindU_IsbL-1015_RLatLon0.09_PT078H.grib2 2026-04-25 15:03 786K
20260425T12Z_MSC_RDPS_WindV_AGL-10m_RLatLon0.09_PT078H.grib2 2026-04-25 15:03 435K
20260425T12Z_MSC_RDPS_WindV_AGL-120m_RLatLon0.09_PT078H.grib2 2026-04-25 15:03 532K
20260425T12Z_MSC_RDPS_WindV_AGL-40m_RLatLon0.09_PT078H.grib2 2026-04-25 15:03 536K
20260425T12Z_MSC_RDPS_WindV_AGL-80m_RLatLon0.09_PT078H.grib2 2026-04-25 15:03 533K
20260425T12Z_MSC_RDPS_WindV_IsbL-0001_RLatLon0.09_PT078H.grib2 2026-04-25 15:03 247K
20260425T12Z_MSC_RDPS_WindV_IsbL-0005_RLatLon0.09_PT078H.grib2 2026-04-25 15:03 291K
20260425T12Z_MSC_RDPS_WindV_IsbL-0010_RLatLon0.09_PT078H.grib2 2026-04-25 15:03 305K
20260425T12Z_MSC_RDPS_WindV_IsbL-0020_RLatLon0.09_PT078H.grib2 2026-04-25 15:03 324K
20260425T12Z_MSC_RDPS_WindV_IsbL-0030_RLatLon0.09_PT078H.grib2 2026-04-25 15:03 319K
20260425T12Z_MSC_RDPS_WindV_IsbL-0050_RLatLon0.09_PT078H.grib2 2026-04-25 15:03 350K
20260425T12Z_MSC_RDPS_WindV_IsbL-0100_RLatLon0.09_PT078H.grib2 2026-04-25 15:03 337K
20260425T12Z_MSC_RDPS_WindV_IsbL-0150_RLatLon0.09_PT078H.grib2 2026-04-25 15:03 399K
20260425T12Z_MSC_RDPS_WindV_IsbL-0175_RLatLon0.09_PT078H.grib2 2026-04-25 15:03 428K
20260425T12Z_MSC_RDPS_WindV_IsbL-0200_RLatLon0.09_PT078H.grib2 2026-04-25 15:03 344K
20260425T12Z_MSC_RDPS_WindV_IsbL-0225_RLatLon0.09_PT078H.grib2 2026-04-25 15:03 347K
20260425T12Z_MSC_RDPS_WindV_IsbL-0250_RLatLon0.09_PT078H.grib2 2026-04-25 15:03 347K
20260425T12Z_MSC_RDPS_WindV_IsbL-0275_RLatLon0.09_PT078H.grib2 2026-04-25 15:03 360K
20260425T12Z_MSC_RDPS_WindV_IsbL-0300_RLatLon0.09_PT078H.grib2 2026-04-25 15:03 357K
20260425T12Z_MSC_RDPS_WindV_IsbL-0350_RLatLon0.09_PT078H.grib2 2026-04-25 15:03 365K
20260425T12Z_MSC_RDPS_WindV_IsbL-0400_RLatLon0.09_PT078H.grib2 2026-04-25 15:03 470K
20260425T12Z_MSC_RDPS_WindV_IsbL-0450_RLatLon0.09_PT078H.grib2 2026-04-25 15:03 467K
20260425T12Z_MSC_RDPS_WindV_IsbL-0500_RLatLon0.09_PT078H.grib2 2026-04-25 15:03 466K
20260425T12Z_MSC_RDPS_WindV_IsbL-0550_RLatLon0.09_PT078H.grib2 2026-04-25 15:03 467K
20260425T12Z_MSC_RDPS_WindV_IsbL-0600_RLatLon0.09_PT078H.grib2 2026-04-25 15:03 476K
20260425T12Z_MSC_RDPS_WindV_IsbL-0650_RLatLon0.09_PT078H.grib2 2026-04-25 15:03 495K
20260425T12Z_MSC_RDPS_WindV_IsbL-0700_RLatLon0.09_PT078H.grib2 2026-04-25 15:03 513K
20260425T12Z_MSC_RDPS_WindV_IsbL-0750_RLatLon0.09_PT078H.grib2 2026-04-25 15:03 539K
20260425T12Z_MSC_RDPS_WindV_IsbL-0800_RLatLon0.09_PT078H.grib2 2026-04-25 15:03 578K
20260425T12Z_MSC_RDPS_WindV_IsbL-0850_RLatLon0.09_PT078H.grib2 2026-04-25 15:03 620K
20260425T12Z_MSC_RDPS_WindV_IsbL-0875_RLatLon0.09_PT078H.grib2 2026-04-25 15:03 640K
20260425T12Z_MSC_RDPS_WindV_IsbL-0900_RLatLon0.09_PT078H.grib2 2026-04-25 15:03 651K
20260425T12Z_MSC_RDPS_WindV_IsbL-0925_RLatLon0.09_PT078H.grib2 2026-04-25 15:03 655K
20260425T12Z_MSC_RDPS_WindV_IsbL-0950_RLatLon0.09_PT078H.grib2 2026-04-25 15:03 653K
20260425T12Z_MSC_RDPS_WindV_IsbL-0970_RLatLon0.09_PT078H.grib2 2026-04-25 15:03 653K
20260425T12Z_MSC_RDPS_WindV_IsbL-0985_RLatLon0.09_PT078H.grib2 2026-04-25 15:03 792K
20260425T12Z_MSC_RDPS_WindV_IsbL-1000_RLatLon0.09_PT078H.grib2 2026-04-25 15:03 789K
20260425T12Z_MSC_RDPS_WindV_IsbL-1015_RLatLon0.09_PT078H.grib2 2026-04-25 15:03 784K